Year,Month,Day,Hour,Minute,Value (Times are PST for windspeed in km/hr)
2019,09,19,00,00,2.20
2019,09,19,00,01,2.00
2019,09,19,00,02,2.40
2019,09,19,00,03,3.00
2019,09,19,00,04,2.40
2019,09,19,00,05,2.40
2019,09,19,00,06,1.90
2019,09,19,00,07,1.90
2019,09,19,00,09,2.80
2019,09,19,00,10,3.50
2019,09,19,00,11,3.90
2019,09,19,00,12,4.80
2019,09,19,00,13,4.60
2019,09,19,00,14,4.60
2019,09,19,00,15,4.80
2019,09,19,00,16,5.40
2019,09,19,00,17,4.40
2019,09,19,00,18,4.10
2019,09,19,00,19,3.90
2019,09,19,00,20,3.90
2019,09,19,00,21,3.00
2019,09,19,00,22,3.30
2019,09,19,00,23,3.50
2019,09,19,00,24,3.70
2019,09,19,00,25,3.30
2019,09,19,00,26,3.70
2019,09,19,00,27,4.10
2019,09,19,00,28,3.90
2019,09,19,00,29,3.90
2019,09,19,00,30,3.50
2019,09,19,00,32,2.40
2019,09,19,00,33,2.80
2019,09,19,00,34,3.00
2019,09,19,00,35,3.00
2019,09,19,00,36,1.70
2019,09,19,00,37,0.20
2019,09,19,00,38,0.00
2019,09,19,00,39,0.00
2019,09,19,00,40,0.00
2019,09,19,00,41,0.00
2019,09,19,00,42,0.00
2019,09,19,00,43,0.00
2019,09,19,00,44,0.00
2019,09,19,00,45,0.00
2019,09,19,00,46,0.00
2019,09,19,00,47,0.00
2019,09,19,00,48,0.00
2019,09,19,00,49,0.00
2019,09,19,00,50,0.00
2019,09,19,00,51,0.00
2019,09,19,00,52,0.00
2019,09,19,00,53,0.00
2019,09,19,00,54,0.00
2019,09,19,00,55,0.00
2019,09,19,00,56,0.70
2019,09,19,00,57,2.20
2019,09,19,00,58,1.90
2019,09,19,00,59,2.00
2019,09,19,01,00,1.30
2019,09,19,01,01,0.60
2019,09,19,01,02,0.20
2019,09,19,01,03,1.70
2019,09,19,01,04,0.90
2019,09,19,01,05,1.70
2019,09,19,01,06,1.30
2019,09,19,01,07,1.90
2019,09,19,01,08,1.70
2019,09,19,01,09,1.10
2019,09,19,01,10,0.40
2019,09,19,01,11,0.00
2019,09,19,01,12,0.00
2019,09,19,01,13,0.00
2019,09,19,01,14,0.00
2019,09,19,01,15,0.00
2019,09,19,01,16,1.30
2019,09,19,01,17,0.00
2019,09,19,01,18,0.00
2019,09,19,01,19,0.00
2019,09,19,01,20,0.00
2019,09,19,01,21,0.00
2019,09,19,01,22,0.00
2019,09,19,01,23,0.00
2019,09,19,01,24,0.90
2019,09,19,01,25,4.60
2019,09,19,01,26,4.10
2019,09,19,01,27,3.70
2019,09,19,01,28,4.30
2019,09,19,01,29,4.60
2019,09,19,01,30,5.00
2019,09,19,01,31,4.80
2019,09,19,01,32,4.60
2019,09,19,01,33,5.00
2019,09,19,01,34,5.00
2019,09,19,01,35,4.80
2019,09,19,01,36,4.60
2019,09,19,01,37,4.40
2019,09,19,01,38,3.90
2019,09,19,01,39,3.50
2019,09,19,01,40,3.50
2019,09,19,01,41,4.10
2019,09,19,01,42,4.10
2019,09,19,01,43,4.10
2019,09,19,01,44,4.30
2019,09,19,01,45,4.30
2019,09,19,01,46,4.80
2019,09,19,01,47,4.80
2019,09,19,01,48,5.00
2019,09,19,01,49,4.80
2019,09,19,01,50,5.20
2019,09,19,01,51,5.20
2019,09,19,01,52,5.20
2019,09,19,01,53,5.20
2019,09,19,01,54,5.40
2019,09,19,01,55,5.20
2019,09,19,01,56,5.60
2019,09,19,01,57,6.50
2019,09,19,01,58,5.40
2019,09,19,01,59,5.20
2019,09,19,02,00,5.60
2019,09,19,02,01,6.30
2019,09,19,02,02,6.10
2019,09,19,02,03,5.70
2019,09,19,02,04,5.70
2019,09,19,02,05,5.20
2019,09,19,02,06,5.40
2019,09,19,02,07,5.60
2019,09,19,02,08,5.70
2019,09,19,02,09,6.10
2019,09,19,02,10,6.90
2019,09,19,02,11,7.20
2019,09,19,02,12,6.10
2019,09,19,02,13,5.70
2019,09,19,02,14,5.90
2019,09,19,02,15,6.70
2019,09,19,02,16,6.50
2019,09,19,02,17,5.70
2019,09,19,02,18,5.60
2019,09,19,02,19,5.90
2019,09,19,02,20,5.90
2019,09,19,02,21,5.90
2019,09,19,02,22,5.20
2019,09,19,02,23,5.70
2019,09,19,02,24,6.50
2019,09,19,02,25,5.20
2019,09,19,02,26,5.00
2019,09,19,02,27,5.20
2019,09,19,02,28,5.40
2019,09,19,02,29,5.00
2019,09,19,02,30,5.60
2019,09,19,02,31,5.70
2019,09,19,02,32,5.40
2019,09,19,02,33,5.20
2019,09,19,02,34,5.00
2019,09,19,02,35,5.20
2019,09,19,02,36,6.10
2019,09,19,02,37,4.30
2019,09,19,02,38,5.00
2019,09,19,02,39,4.60
2019,09,19,02,40,4.10
2019,09,19,02,41,4.80
2019,09,19,02,42,4.80
2019,09,19,02,43,4.60
2019,09,19,02,44,4.30
2019,09,19,02,45,3.00
2019,09,19,02,46,3.50
2019,09,19,02,47,4.40
2019,09,19,02,48,3.70
2019,09,19,02,49,3.70
2019,09,19,02,50,3.90
2019,09,19,02,51,4.40
2019,09,19,02,52,3.70
2019,09,19,02,53,3.50
2019,09,19,02,54,3.70
2019,09,19,02,55,3.50
2019,09,19,02,56,3.70
2019,09,19,02,57,3.30
2019,09,19,02,58,3.50
2019,09,19,02,59,3.00
2019,09,19,03,00,3.30
2019,09,19,03,02,3.30
2019,09,19,03,03,3.00
2019,09,19,03,04,3.50
2019,09,19,03,06,3.70
2019,09,19,03,07,3.30
2019,09,19,03,08,3.10
2019,09,19,03,09,3.10
2019,09,19,03,11,3.00
2019,09,19,03,12,3.10
2019,09,19,03,13,2.80
2019,09,19,03,14,3.00
2019,09,19,03,16,3.70
2019,09,19,03,17,3.30
2019,09,19,03,18,3.30
2019,09,19,03,19,3.50
2019,09,19,03,21,3.50
2019,09,19,03,22,3.90
2019,09,19,03,23,4.40
2019,09,19,03,24,4.30
2019,09,19,03,26,4.80
2019,09,19,03,27,5.60
2019,09,19,03,28,4.60
2019,09,19,03,29,5.00
2019,09,19,03,31,4.80
2019,09,19,03,32,4.30
2019,09,19,03,33,3.10
2019,09,19,03,34,3.70
2019,09,19,03,36,3.50
2019,09,19,03,37,2.20
2019,09,19,03,38,1.70
2019,09,19,03,39,2.20
2019,09,19,03,41,2.20
2019,09,19,03,42,2.60
2019,09,19,03,43,3.00
2019,09,19,03,44,1.90
2019,09,19,03,46,1.70
2019,09,19,03,47,0.00
2019,09,19,03,48,0.00
2019,09,19,03,49,1.90
2019,09,19,03,51,1.70
2019,09,19,03,52,1.90
2019,09,19,03,53,1.10
2019,09,19,03,54,1.10
2019,09,19,03,56,1.70
2019,09,19,03,57,1.50
2019,09,19,03,58,1.30
2019,09,19,03,59,0.00
2019,09,19,04,01,0.00
2019,09,19,04,02,0.90
2019,09,19,04,03,3.10
2019,09,19,04,04,2.60
2019,09,19,04,06,0.40
2019,09,19,04,07,0.90
2019,09,19,04,08,0.70
2019,09,19,04,09,0.90
2019,09,19,04,11,0.20
2019,09,19,04,12,0.00
2019,09,19,04,13,0.20
2019,09,19,04,14,0.70
2019,09,19,04,16,0.00
2019,09,19,04,17,1.10
2019,09,19,04,18,1.90
2019,09,19,04,19,0.20
2019,09,19,04,21,0.00
2019,09,19,04,22,0.00
2019,09,19,04,23,0.00
2019,09,19,04,24,0.00
2019,09,19,04,26,0.00
2019,09,19,04,27,0.00
2019,09,19,04,28,0.00
2019,09,19,04,29,0.00
2019,09,19,04,31,1.10
2019,09,19,04,32,1.10
2019,09,19,04,33,1.30
2019,09,19,04,34,0.40
2019,09,19,04,36,2.20
2019,09,19,04,37,3.00
2019,09,19,04,38,2.60
2019,09,19,04,39,2.20
2019,09,19,04,41,3.10
2019,09,19,04,42,3.50
2019,09,19,04,43,3.30
2019,09,19,04,44,3.10
2019,09,19,04,45,2.40
2019,09,19,04,46,1.50
2019,09,19,04,47,0.40
2019,09,19,04,48,0.70
2019,09,19,04,49,0.60
2019,09,19,04,50,0.00
2019,09,19,04,51,0.00
2019,09,19,04,52,0.00
2019,09,19,04,53,1.10
2019,09,19,04,54,0.40
2019,09,19,04,55,0.00
2019,09,19,04,56,0.00
2019,09,19,04,57,0.00
2019,09,19,04,58,0.00
2019,09,19,04,59,0.00
2019,09,19,05,00,0.00
2019,09,19,05,01,0.00
2019,09,19,05,02,0.40
2019,09,19,05,03,0.40
2019,09,19,05,04,0.00
2019,09,19,05,06,2.40
2019,09,19,05,07,3.50
2019,09,19,05,08,3.10
2019,09,19,05,09,3.00
2019,09,19,05,10,2.20
2019,09,19,05,11,2.00
2019,09,19,05,12,0.90
2019,09,19,05,13,1.70
2019,09,19,05,14,2.20
2019,09,19,05,15,2.60
2019,09,19,05,16,3.00
2019,09,19,05,17,3.10
2019,09,19,05,18,3.10
2019,09,19,05,19,3.10
2019,09,19,05,20,3.00
2019,09,19,05,21,2.60
2019,09,19,05,22,2.40
2019,09,19,05,23,1.70
2019,09,19,05,24,1.50
2019,09,19,05,25,0.60
2019,09,19,05,26,0.00
2019,09,19,05,27,0.00
2019,09,19,05,28,0.00
2019,09,19,05,29,0.00
2019,09,19,05,30,0.00
2019,09,19,05,31,0.20
2019,09,19,05,32,0.40
2019,09,19,05,33,1.30
2019,09,19,05,34,0.90
2019,09,19,05,35,0.00
2019,09,19,05,36,0.00
2019,09,19,05,37,0.00
2019,09,19,05,38,0.00
2019,09,19,05,39,0.00
2019,09,19,05,40,0.20
2019,09,19,05,41,0.60
2019,09,19,05,42,0.00
2019,09,19,05,43,0.00
2019,09,19,05,44,0.00
2019,09,19,05,45,0.60
2019,09,19,05,46,0.40
2019,09,19,05,47,1.50
2019,09,19,05,48,2.80
2019,09,19,05,49,2.20
2019,09,19,05,50,1.50
2019,09,19,05,51,0.20
2019,09,19,05,52,0.00
2019,09,19,05,53,0.20
2019,09,19,05,54,0.00
2019,09,19,05,55,0.00
2019,09,19,05,56,0.00
2019,09,19,05,57,0.60
2019,09,19,05,58,0.00
2019,09,19,05,59,0.20
2019,09,19,06,00,1.70
2019,09,19,06,01,1.70
2019,09,19,06,02,0.70
2019,09,19,06,03,0.00
2019,09,19,06,04,0.00
2019,09,19,06,05,2.40
2019,09,19,06,06,3.10
2019,09,19,06,07,3.50
2019,09,19,06,08,2.20
2019,09,19,06,09,3.30
2019,09,19,06,10,3.00
2019,09,19,06,11,1.90
2019,09,19,06,12,3.30
2019,09,19,06,13,3.10
2019,09,19,06,14,3.70
2019,09,19,06,15,4.30
2019,09,19,06,16,4.40
2019,09,19,06,17,4.60
2019,09,19,06,18,4.40
2019,09,19,06,19,4.80
2019,09,19,06,20,4.80
2019,09,19,06,21,4.30
2019,09,19,06,22,4.80
2019,09,19,06,23,4.60
2019,09,19,06,24,4.40
2019,09,19,06,25,4.40
2019,09,19,06,26,4.60
2019,09,19,06,27,4.60
2019,09,19,06,28,4.80
2019,09,19,06,29,4.60
2019,09,19,06,30,5.00
2019,09,19,06,32,5.00
2019,09,19,06,33,5.00
2019,09,19,06,34,4.60
2019,09,19,06,35,4.80
2019,09,19,06,36,4.30
2019,09,19,06,37,4.40
2019,09,19,06,38,4.30
2019,09,19,06,39,4.10
2019,09,19,06,40,4.80
2019,09,19,06,41,4.80
2019,09,19,06,42,4.40
2019,09,19,06,43,4.40
2019,09,19,06,44,4.80
2019,09,19,06,45,4.30
2019,09,19,06,46,4.10
2019,09,19,06,47,3.90
2019,09,19,06,48,3.70
2019,09,19,06,49,4.10
2019,09,19,06,50,4.10
2019,09,19,06,51,3.90
2019,09,19,06,52,4.10
2019,09,19,06,53,4.60
2019,09,19,06,54,4.60
2019,09,19,06,55,4.60
2019,09,19,06,56,2.60
2019,09,19,06,57,3.00
2019,09,19,06,58,3.10
2019,09,19,06,59,3.70
2019,09,19,07,00,3.30
2019,09,19,07,01,2.80
2019,09,19,07,02,3.70
2019,09,19,07,03,3.50
2019,09,19,07,04,2.60
2019,09,19,07,05,2.80
2019,09,19,07,06,2.60
2019,09,19,07,07,1.70
2019,09,19,07,08,0.60
2019,09,19,07,09,0.20
2019,09,19,07,10,1.30
2019,09,19,07,11,0.00
2019,09,19,07,12,0.70
2019,09,19,07,13,2.20
2019,09,19,07,14,3.10
2019,09,19,07,15,3.10
2019,09,19,07,16,3.30
2019,09,19,07,17,3.10
2019,09,19,07,18,1.90
2019,09,19,07,19,2.80
2019,09,19,07,20,2.60
2019,09,19,07,21,3.10
2019,09,19,07,22,2.20
2019,09,19,07,23,2.80
2019,09,19,07,24,2.20
2019,09,19,07,25,2.60
2019,09,19,07,26,1.50
2019,09,19,07,27,0.20
2019,09,19,07,28,1.70
2019,09,19,07,29,3.10
2019,09,19,07,30,4.60
2019,09,19,07,31,3.70
2019,09,19,07,32,4.10
2019,09,19,07,33,5.40
2019,09,19,07,34,4.60
2019,09,19,07,35,3.70
2019,09,19,07,36,3.30
2019,09,19,07,37,3.00
2019,09,19,07,38,3.10
2019,09,19,07,39,3.30
2019,09,19,07,40,2.40
2019,09,19,07,41,2.20
2019,09,19,07,42,1.90
2019,09,19,07,43,2.00
2019,09,19,07,44,2.60
2019,09,19,07,45,3.30
2019,09,19,07,46,3.10
2019,09,19,07,47,3.30
2019,09,19,07,48,2.00
2019,09,19,07,49,0.00
2019,09,19,07,50,0.00
2019,09,19,07,51,0.00
2019,09,19,07,52,0.00
2019,09,19,07,53,0.00
2019,09,19,07,54,0.00
2019,09,19,07,55,0.00
2019,09,19,07,56,0.00
2019,09,19,07,57,0.00
2019,09,19,07,58,0.00
2019,09,19,07,59,0.00
2019,09,19,08,00,0.00
2019,09,19,08,01,0.00
2019,09,19,08,02,0.00
2019,09,19,08,03,0.00
2019,09,19,08,04,0.00
2019,09,19,08,05,0.00
2019,09,19,08,06,0.00
2019,09,19,08,07,0.00
2019,09,19,08,08,0.00
2019,09,19,08,09,0.00
2019,09,19,08,10,0.00
2019,09,19,08,11,0.00
2019,09,19,08,12,0.00
2019,09,19,08,13,0.00
2019,09,19,08,14,0.00
2019,09,19,08,15,0.00
2019,09,19,08,16,0.00
2019,09,19,08,17,0.00
2019,09,19,08,18,0.00
2019,09,19,08,19,0.00
2019,09,19,08,20,0.00
2019,09,19,08,22,0.00
2019,09,19,08,23,0.00
2019,09,19,08,24,0.00
2019,09,19,08,26,0.00
2019,09,19,08,27,0.00
2019,09,19,08,28,0.00
2019,09,19,08,29,0.00
2019,09,19,08,31,0.00
2019,09,19,08,32,1.10
2019,09,19,08,33,4.80
2019,09,19,08,34,3.70
2019,09,19,08,36,3.00
2019,09,19,08,37,2.40
2019,09,19,08,38,3.70
2019,09,19,08,39,4.60
2019,09,19,08,41,4.40
2019,09,19,08,42,2.80
2019,09,19,08,43,2.20
2019,09,19,08,44,3.10
2019,09,19,08,46,4.30
2019,09,19,08,47,5.60
2019,09,19,08,48,6.30
2019,09,19,08,49,5.70
2019,09,19,08,51,3.50
2019,09,19,08,52,2.80
2019,09,19,08,53,3.10
2019,09,19,08,54,1.10
2019,09,19,08,56,1.90
2019,09,19,08,57,3.50
2019,09,19,08,58,3.50
2019,09,19,08,59,3.00
2019,09,19,09,01,4.30
2019,09,19,09,02,3.90
2019,09,19,09,03,5.60
2019,09,19,09,04,3.70
2019,09,19,09,06,5.20
2019,09,19,09,07,3.90
2019,09,19,09,08,3.50
2019,09,19,09,09,3.10
2019,09,19,09,11,2.40
2019,09,19,09,12,5.70
2019,09,19,09,13,3.50
2019,09,19,09,14,3.90
2019,09,19,09,16,4.60
2019,09,19,09,17,4.80
2019,09,19,09,18,3.30
2019,09,19,09,19,2.00
2019,09,19,09,21,2.40
2019,09,19,09,22,2.00
2019,09,19,09,23,2.60
2019,09,19,09,24,3.70
2019,09,19,09,26,3.10
2019,09,19,09,27,2.40
2019,09,19,09,28,2.80
2019,09,19,09,29,3.30
2019,09,19,09,31,1.10
2019,09,19,09,32,0.60
2019,09,19,09,33,1.10
2019,09,19,09,34,0.60
2019,09,19,09,36,2.40
2019,09,19,09,37,1.90
2019,09,19,09,38,2.00
2019,09,19,09,39,2.40
2019,09,19,09,41,2.20
2019,09,19,09,42,2.40
2019,09,19,09,43,2.40
2019,09,19,09,44,2.40
2019,09,19,09,46,3.10
2019,09,19,09,47,3.10
2019,09,19,09,48,2.80
2019,09,19,09,49,3.00
2019,09,19,09,51,3.30
2019,09,19,09,52,3.70
2019,09,19,09,53,4.30
2019,09,19,09,54,4.30
2019,09,19,09,56,3.00
2019,09,19,09,57,2.60
2019,09,19,09,58,2.40
2019,09,19,09,59,2.40
2019,09,19,10,01,1.90
2019,09,19,10,02,1.50
2019,09,19,10,03,2.60
2019,09,19,10,04,2.60
2019,09,19,10,06,2.80
2019,09,19,10,07,2.40
2019,09,19,10,08,2.60
2019,09,19,10,09,2.20
2019,09,19,10,11,3.00
2019,09,19,10,12,4.40
2019,09,19,10,13,4.30
2019,09,19,10,14,5.70
2019,09,19,10,15,6.50
2019,09,19,10,16,6.70
2019,09,19,10,17,5.70
2019,09,19,10,18,5.00
2019,09,19,10,19,4.80
2019,09,19,10,21,4.10
2019,09,19,10,22,4.60
2019,09,19,10,23,4.30
2019,09,19,10,24,4.80
2019,09,19,10,25,4.40
2019,09,19,10,26,4.60
2019,09,19,10,27,4.10
2019,09,19,10,28,3.90
2019,09,19,10,29,3.70
2019,09,19,10,30,4.30
2019,09,19,10,31,4.40
2019,09,19,10,32,2.80
2019,09,19,10,33,3.00
2019,09,19,10,34,3.00
2019,09,19,10,36,2.80
2019,09,19,10,37,2.40
2019,09,19,10,38,3.00
2019,09,19,10,39,2.60
2019,09,19,10,40,2.00
2019,09,19,10,41,1.70
2019,09,19,10,42,1.50
2019,09,19,10,43,2.20
2019,09,19,10,44,2.20
2019,09,19,10,45,2.40
2019,09,19,10,46,1.90
2019,09,19,10,47,2.60
2019,09,19,10,48,2.00
2019,09,19,10,49,1.90
2019,09,19,10,50,2.00
2019,09,19,10,51,2.60
2019,09,19,10,52,2.40
2019,09,19,10,53,2.60
2019,09,19,10,54,2.60
2019,09,19,10,55,2.40
2019,09,19,10,56,2.80
2019,09,19,10,57,2.80
2019,09,19,10,58,2.60
2019,09,19,10,59,2.20
2019,09,19,11,00,2.40
2019,09,19,11,01,2.20
2019,09,19,11,02,1.90
2019,09,19,11,03,2.60
2019,09,19,11,04,2.60
2019,09,19,11,05,2.60
2019,09,19,11,06,2.00
2019,09,19,11,07,2.20
2019,09,19,11,08,1.50
2019,09,19,11,09,1.10
2019,09,19,11,10,1.10
2019,09,19,11,11,1.30
2019,09,19,11,12,0.40
2019,09,19,11,13,0.90
2019,09,19,11,14,0.90
2019,09,19,11,15,1.70
2019,09,19,11,16,2.20
2019,09,19,11,17,2.00
2019,09,19,11,18,2.60
2019,09,19,11,19,2.00
2019,09,19,11,20,3.00
2019,09,19,11,21,2.20
2019,09,19,11,22,3.10
2019,09,19,11,23,2.60
2019,09,19,11,24,2.40
2019,09,19,11,25,2.60
2019,09,19,11,26,2.80
2019,09,19,11,27,3.10
2019,09,19,11,28,2.40
2019,09,19,11,29,3.00
2019,09,19,11,30,3.30
2019,09,19,11,31,3.00
2019,09,19,11,32,3.00
2019,09,19,11,33,3.00
2019,09,19,11,34,2.80
2019,09,19,11,35,2.40
2019,09,19,11,36,2.40
2019,09,19,11,37,1.90
2019,09,19,11,38,2.60
2019,09,19,11,39,2.60
2019,09,19,11,40,3.10
2019,09,19,11,41,2.60
2019,09,19,11,42,2.80
2019,09,19,11,43,3.00
2019,09,19,11,44,3.00
2019,09,19,11,45,2.80
2019,09,19,11,46,3.10
2019,09,19,11,47,3.30
2019,09,19,11,48,3.10
2019,09,19,11,49,3.10
2019,09,19,11,50,2.80
2019,09,19,11,51,3.00
2019,09,19,11,52,2.40
2019,09,19,11,53,2.80
2019,09,19,11,54,2.60
2019,09,19,11,55,3.00
2019,09,19,11,56,2.60
2019,09,19,11,57,2.60
2019,09,19,11,58,3.00
2019,09,19,11,59,3.00
2019,09,19,12,00,3.10
2019,09,19,12,01,3.10
2019,09,19,12,02,3.50
2019,09,19,12,03,3.90
2019,09,19,12,04,4.10
2019,09,19,12,05,3.30
2019,09,19,12,06,3.30
2019,09,19,12,07,2.80
2019,09,19,12,08,3.10
2019,09,19,12,09,2.60
2019,09,19,12,10,3.10
2019,09,19,12,11,2.80
2019,09,19,12,12,3.00
2019,09,19,12,13,3.30
2019,09,19,12,14,3.50
2019,09,19,12,15,3.50
2019,09,19,12,16,3.50
2019,09,19,12,17,4.60
2019,09,19,12,18,4.10
2019,09,19,12,19,5.00
2019,09,19,12,20,4.40
2019,09,19,12,21,5.20
2019,09,19,12,22,5.40
2019,09,19,12,23,5.70
2019,09,19,12,24,5.40
2019,09,19,12,25,5.60
2019,09,19,12,26,5.20
2019,09,19,12,27,5.20
2019,09,19,12,28,5.90
2019,09,19,12,29,6.30
2019,09,19,12,30,5.70
2019,09,19,12,32,5.60
2019,09,19,12,33,5.90
2019,09,19,12,34,5.60
2019,09,19,12,35,5.90
2019,09,19,12,36,5.60
2019,09,19,12,37,6.50
2019,09,19,12,38,7.00
2019,09,19,12,39,8.00
2019,09,19,12,40,8.30
2019,09,19,12,41,7.60
2019,09,19,12,42,7.60
2019,09,19,12,43,7.20
2019,09,19,12,44,6.50
2019,09,19,12,45,5.90
2019,09,19,12,46,6.50
2019,09,19,12,47,7.20
2019,09,19,12,48,7.40
2019,09,19,12,49,8.00
2019,09,19,12,50,8.00
2019,09,19,12,51,8.00
2019,09,19,12,52,8.50
2019,09,19,12,53,7.80
2019,09,19,12,54,8.90
2019,09,19,12,55,8.70
2019,09,19,12,56,8.50
2019,09,19,12,57,8.30
2019,09,19,12,58,8.70
2019,09,19,12,59,8.50
2019,09,19,13,00,8.10
2019,09,19,13,01,8.50
2019,09,19,13,02,8.90
2019,09,19,13,03,8.90
2019,09,19,13,04,8.90
2019,09,19,13,05,8.90
2019,09,19,13,06,8.50
2019,09,19,13,07,8.10
2019,09,19,13,08,8.30
2019,09,19,13,09,8.50
2019,09,19,13,10,8.30
2019,09,19,13,11,9.10
2019,09,19,13,12,8.30
2019,09,19,13,13,9.10
2019,09,19,13,14,9.40
2019,09,19,13,15,9.40
2019,09,19,13,16,10.20
2019,09,19,13,17,9.80
2019,09,19,13,18,8.90
2019,09,19,13,19,7.80
2019,09,19,13,20,8.10
2019,09,19,13,21,8.10
2019,09,19,13,22,7.20
2019,09,19,13,23,8.00
2019,09,19,13,24,7.80
2019,09,19,13,25,9.30
2019,09,19,13,26,9.10
2019,09,19,13,27,10.20
2019,09,19,13,28,10.40
2019,09,19,13,29,11.70
2019,09,19,13,30,10.60
2019,09,19,13,31,9.60
2019,09,19,13,32,10.90
2019,09,19,13,33,10.40
2019,09,19,13,34,9.80
2019,09,19,13,35,11.50
2019,09,19,13,36,13.00
2019,09,19,13,37,14.60
2019,09,19,13,38,13.00
2019,09,19,13,39,13.50
2019,09,19,13,40,11.90
2019,09,19,13,41,10.90
2019,09,19,13,42,9.60
2019,09,19,13,43,10.00
2019,09,19,13,44,10.00
2019,09,19,13,45,9.60
2019,09,19,13,46,10.60
2019,09,19,13,47,10.70
2019,09,19,13,48,10.60
2019,09,19,13,49,9.30
2019,09,19,13,50,9.80
2019,09,19,13,51,9.30
2019,09,19,13,53,7.40
2019,09,19,13,54,7.00
2019,09,19,13,56,3.10
2019,09,19,13,57,2.60
2019,09,19,13,58,3.00
2019,09,19,13,59,3.00
2019,09,19,14,01,6.10
2019,09,19,14,02,4.10
2019,09,19,14,03,3.90
2019,09,19,14,04,3.70
2019,09,19,14,06,3.50
2019,09,19,14,07,3.70
2019,09,19,14,08,3.70
2019,09,19,14,09,4.80
2019,09,19,14,11,6.70
2019,09,19,14,12,5.00
2019,09,19,14,13,3.30
2019,09,19,14,14,4.10
2019,09,19,14,16,3.10
2019,09,19,14,17,5.70
2019,09,19,14,18,3.30
2019,09,19,14,19,2.60
2019,09,19,14,21,4.80
2019,09,19,14,22,6.10
2019,09,19,14,23,4.30
2019,09,19,14,24,3.50
2019,09,19,14,26,4.10
2019,09,19,14,27,2.00
2019,09,19,14,28,1.10
2019,09,19,14,29,2.40
2019,09,19,14,31,2.80
2019,09,19,14,32,3.00
2019,09,19,14,33,3.70
2019,09,19,14,34,4.60
2019,09,19,14,36,3.70
2019,09,19,14,37,2.60
2019,09,19,14,38,1.30
2019,09,19,14,39,2.20
2019,09,19,14,41,2.60
2019,09,19,14,42,5.20
2019,09,19,14,43,3.70
2019,09,19,14,44,3.50
2019,09,19,14,46,4.30
2019,09,19,14,47,4.40
2019,09,19,14,48,6.10
2019,09,19,14,49,6.50
2019,09,19,14,51,6.70
2019,09,19,14,52,4.60
2019,09,19,14,53,4.60
2019,09,19,14,54,5.20
2019,09,19,14,56,5.00
2019,09,19,14,57,4.80
2019,09,19,14,58,5.00
2019,09,19,14,59,3.30
2019,09,19,15,01,3.90
2019,09,19,15,02,3.70
2019,09,19,15,03,2.20
2019,09,19,15,04,3.00
2019,09,19,15,06,4.60
2019,09,19,15,07,3.50
2019,09,19,15,08,4.80
2019,09,19,15,09,5.60
2019,09,19,15,11,3.30
2019,09,19,15,12,4.30
2019,09,19,15,13,4.10
2019,09,19,15,14,3.70
2019,09,19,15,16,5.20
2019,09,19,15,17,3.70
2019,09,19,15,18,4.80
2019,09,19,15,19,2.20
2019,09,19,15,21,4.30
2019,09,19,15,22,4.10
2019,09,19,15,23,5.70
2019,09,19,15,24,7.40
2019,09,19,15,26,3.90
2019,09,19,15,27,2.60
2019,09,19,15,28,0.60
2019,09,19,15,29,2.20
2019,09,19,15,31,3.90
2019,09,19,15,32,4.30
2019,09,19,15,33,3.30
2019,09,19,15,34,3.70
2019,09,19,15,36,4.80
2019,09,19,15,37,5.40
2019,09,19,15,38,5.40
2019,09,19,15,39,3.50
2019,09,19,15,40,3.30
2019,09,19,15,41,2.20
2019,09,19,15,42,5.00
2019,09,19,15,43,4.60
2019,09,19,15,44,4.80
2019,09,19,15,45,4.10
2019,09,19,15,46,5.00
2019,09,19,15,47,2.20
2019,09,19,15,48,3.10
2019,09,19,15,49,3.70
2019,09,19,15,50,3.00
2019,09,19,15,51,4.60
2019,09,19,15,52,3.00
2019,09,19,15,53,2.00
2019,09,19,15,54,1.90
2019,09,19,15,55,3.30
2019,09,19,15,56,3.10
2019,09,19,15,57,3.10
2019,09,19,15,58,5.40
2019,09,19,15,59,5.20
2019,09,19,16,00,4.40
2019,09,19,16,01,3.10
2019,09,19,16,02,7.20
2019,09,19,16,03,3.90
2019,09,19,16,04,3.00
2019,09,19,16,06,4.60
2019,09,19,16,07,6.30
2019,09,19,16,08,5.00
2019,09,19,16,09,4.60
2019,09,19,16,10,5.60
2019,09,19,16,11,7.80
2019,09,19,16,12,7.00
2019,09,19,16,13,5.20
2019,09,19,16,14,4.40
2019,09,19,16,15,5.40
2019,09,19,16,16,5.60
2019,09,19,16,17,8.00
2019,09,19,16,18,7.00
2019,09,19,16,19,5.70
2019,09,19,16,20,5.60
2019,09,19,16,21,4.80
2019,09,19,16,22,5.40
2019,09,19,16,23,5.70
2019,09,19,16,24,4.60
2019,09,19,16,25,3.70
2019,09,19,16,26,3.30
2019,09,19,16,27,4.40
2019,09,19,16,28,4.60
2019,09,19,16,29,5.40
2019,09,19,16,30,5.70
2019,09,19,16,31,4.40
2019,09,19,16,32,4.10
2019,09,19,16,33,5.00
2019,09,19,16,34,6.30
2019,09,19,16,35,7.00
2019,09,19,16,36,6.50
2019,09,19,16,37,6.90
2019,09,19,16,38,7.40
2019,09,19,16,39,5.70
2019,09,19,16,40,4.60
2019,09,19,16,41,5.90
2019,09,19,16,42,6.70
2019,09,19,16,43,5.00
2019,09,19,16,44,5.00
2019,09,19,16,45,3.50
2019,09,19,16,46,4.10
2019,09,19,16,47,5.00
2019,09,19,16,48,5.00
2019,09,19,16,49,5.70
2019,09,19,16,50,5.00
2019,09,19,16,51,4.10
2019,09,19,16,52,2.60
2019,09,19,16,53,3.70
2019,09,19,16,54,3.50
2019,09,19,16,55,4.30
2019,09,19,16,56,1.30
2019,09,19,16,57,2.60
2019,09,19,16,58,3.50
2019,09,19,16,59,3.70
2019,09,19,17,00,4.10
2019,09,19,17,01,5.20
2019,09,19,17,02,6.30
2019,09,19,17,03,6.10
2019,09,19,17,04,5.60
2019,09,19,17,05,4.80
2019,09,19,17,06,2.80
2019,09,19,17,07,2.80
2019,09,19,17,08,3.70
2019,09,19,17,09,4.10
2019,09,19,17,10,3.30
2019,09,19,17,11,5.60
2019,09,19,17,12,5.20
2019,09,19,17,13,4.60
2019,09,19,17,14,3.70
2019,09,19,17,15,3.50
2019,09,19,17,16,4.10
2019,09,19,17,17,2.60
2019,09,19,17,18,3.90
2019,09,19,17,19,3.90
2019,09,19,17,20,3.00
2019,09,19,17,21,2.80
2019,09,19,17,22,0.40
2019,09,19,17,23,0.40
2019,09,19,17,24,1.10
2019,09,19,17,25,0.70
2019,09,19,17,26,2.40
2019,09,19,17,27,2.80
2019,09,19,17,28,3.50
2019,09,19,17,29,3.00
2019,09,19,17,30,3.10
2019,09,19,17,31,3.10
2019,09,19,17,32,3.50
2019,09,19,17,33,2.60
2019,09,19,17,34,2.20
2019,09,19,17,36,3.10
2019,09,19,17,37,3.50
2019,09,19,17,38,3.30
2019,09,19,17,39,2.60
2019,09,19,17,40,2.80
2019,09,19,17,41,3.10
2019,09,19,17,42,2.80
2019,09,19,17,43,3.10
2019,09,19,17,44,4.60
2019,09,19,17,45,4.60
2019,09,19,17,46,3.30
2019,09,19,17,47,3.00
2019,09,19,17,48,1.90
2019,09,19,17,49,1.30
2019,09,19,17,50,3.50
2019,09,19,17,51,3.90
2019,09,19,17,52,2.80
2019,09,19,17,53,4.30
2019,09,19,17,54,4.40
2019,09,19,17,55,4.30
2019,09,19,17,56,3.50
2019,09,19,17,57,2.80
2019,09,19,17,58,4.10
2019,09,19,17,59,4.80
2019,09,19,18,00,4.40
2019,09,19,18,01,3.70
2019,09,19,18,02,4.30
2019,09,19,18,03,4.10
2019,09,19,18,04,4.60
2019,09,19,18,05,4.30
2019,09,19,18,06,3.30
2019,09,19,18,07,4.10
2019,09,19,18,08,3.70
2019,09,19,18,09,4.10
2019,09,19,18,10,3.30
2019,09,19,18,11,4.10
2019,09,19,18,12,2.80
2019,09,19,18,13,3.10
2019,09,19,18,14,3.70
2019,09,19,18,15,4.40
2019,09,19,18,16,5.20
2019,09,19,18,17,4.60
2019,09,19,18,18,5.70
2019,09,19,18,19,7.00
2019,09,19,18,20,7.60
2019,09,19,18,21,7.20
2019,09,19,18,22,7.40
2019,09,19,18,23,7.20
2019,09,19,18,24,7.00
2019,09,19,18,25,7.20
2019,09,19,18,26,7.20
2019,09,19,18,27,6.30
2019,09,19,18,28,6.50
2019,09,19,18,29,6.30
2019,09,19,18,30,6.10
2019,09,19,18,32,4.40
2019,09,19,18,33,3.10
2019,09,19,18,34,2.20
2019,09,19,18,35,3.50
2019,09,19,18,36,4.40
2019,09,19,18,37,4.60
2019,09,19,18,38,4.60
2019,09,19,18,39,4.80
2019,09,19,18,40,5.90
2019,09,19,18,41,5.60
2019,09,19,18,42,5.60
2019,09,19,18,43,4.40
2019,09,19,18,44,4.30
2019,09,19,18,45,4.40
2019,09,19,18,46,4.60
2019,09,19,18,47,3.30
2019,09,19,18,48,5.20
2019,09,19,18,49,4.30
2019,09,19,18,50,3.70
2019,09,19,18,51,4.40
2019,09,19,18,52,4.40
2019,09,19,18,53,4.10
2019,09,19,18,54,5.00
2019,09,19,18,56,4.80
2019,09,19,18,57,4.80
2019,09,19,18,58,4.80
2019,09,19,18,59,2.80
2019,09,19,19,01,2.60
2019,09,19,19,02,2.80
2019,09,19,19,03,2.60
2019,09,19,19,04,1.50
2019,09,19,19,06,1.10
2019,09,19,19,07,0.60
2019,09,19,19,08,0.60
2019,09,19,19,09,0.00
2019,09,19,19,11,0.00
2019,09,19,19,12,1.30
2019,09,19,19,13,2.00
2019,09,19,19,14,2.20
2019,09,19,19,16,0.40
2019,09,19,19,17,3.00
2019,09,19,19,18,3.30
2019,09,19,19,19,3.30
2019,09,19,19,21,3.90
2019,09,19,19,22,2.40
2019,09,19,19,23,0.40
2019,09,19,19,24,0.00
2019,09,19,19,26,0.00
2019,09,19,19,27,0.00
2019,09,19,19,28,0.00